Location: Buch am Rannenberg
(48.6989°N, 10.6399°E)
Time: 07:26:12
(UTC+00:00)

Cosmos 1315 Rocket - Pass Details

Date: 07 June 2020
Orbit: 529 x 568 km, 81.2° (Epoch: 07 July)

Event Time Altitude Azimuth Distance (km) Brightness Sun altitude
Rises 02:12:44 0° 333° (NNW) 2,686 6.7 -8.4°
Reaches altitude 10° 02:15:23 10° 315° (NW) 1,792 5.5 -8.1°
Maximum altitude 02:18:05 18° 271° (W) 1,358 4.5 -7.8°
Drops below altitude 10° 02:20:47 10° 228° (SW) 1,792 4.8 -7.5°
Enters shadow 02:20:53 10° 227° (SW) 1,822 4.8 -7.5°
